Weather History for Poplar Bluff, MO

Change the Weather History Date:

Saturday, October 5, 2013

  Actual Average Record
Temperature  
Mean Temperature 72 °F -  
Max Temperature 82 °F 77 °F 96 °F (1938)
Min Temperature 60 °F 49 °F 34 °F (1999)
Cooling Degree Days 7    
Growing Degree Days 22 (Base 50)    
Moisture  
Dew Point 69 °F    
Average Humidity 86    
Maximum Humidity 94    
Minimum Humidity 69    
Precipitation  
Precipitation 1.13 in - - ()
Sea Level Pressure  
Sea Level Pressure 29.91 in    
Wind  
Wind Speed 6 mph (SSW)    
Max Wind Speed 16 mph    
Max Gust Speed 26 mph    
Visibility 8 miles    
Events Rain , Thunderstorm    
Averages and records for this station are not official NWS values.
T = Trace of Precipitation, MM = Missing Value Source: NWS Daily Summary

Daily Weather History Graph

Daily Weather History Graph

Search for Another Location

Airport:

Trip Planner

Search our weather history database for the weather conditions in past years. The results will help you decide how hot, cold, wet, or windy it might be!

Date:

Astronomy

Oct. 05, 2013 Rise Set
Actual Time 7:00 AM CDT 6:38 PM CDT
Civil Twilight 6:34 AM CDT 7:04 PM CDT
Nautical Twilight 6:04 AM CDT 7:34 PM CDT
Astronomical Twilight 5:34 AM CDT 8:04 PM CDT
Moon 7:37 AM CDT (10/5) 7:00 PM CDT (10/5)
Length of Visible Light 12h 29m
Length of Day
11h 38m
New Moon, 1% of the Moon is Illuminated
Oct 5
New Moon
Oct 11
First Quarter
Oct 18
Full
Oct 26
Last Quarter
Nov 3
New

Hourly Weather History & Observations

Time (CDT) Temp. Heat Index Dew Point Humidity Pressure Visibility Wind Dir Wind Speed Gust Speed Precip Events Conditions
12:53 AM 73.9 °F - 70.0 °F 87% 29.97 in 10.0 mi SSE 4.6 mph - N/A   Clear
1:53 AM 73.9 °F - 70.0 °F 87% 29.97 in 10.0 mi South 4.6 mph - N/A   Mostly Cloudy
2:53 AM 73.9 °F - 70.0 °F 87% 29.95 in 10.0 mi South 4.6 mph - N/A   Mostly Cloudy
3:53 AM 73.0 °F - 69.1 °F 87% 29.95 in 9.0 mi Calm Calm - N/A   Mostly Cloudy
4:53 AM 71.1 °F - 68.0 °F 90% 29.95 in 6.0 mi Calm Calm - N/A   Partly Cloudy
5:53 AM 73.9 °F - 70.0 °F 87% 29.94 in 5.0 mi South 4.6 mph - 0.02 in Rain Light Rain
6:53 AM 73.0 °F - 70.0 °F 90% 29.95 in 8.0 mi South 3.5 mph - 0.00 in   Overcast
7:53 AM 73.9 °F - 71.1 °F 91% 29.95 in 9.0 mi South 5.8 mph - 0.01 in   Scattered Clouds
8:53 AM 77.0 °F - 72.0 °F 84% 29.96 in 10.0 mi South 10.4 mph - N/A   Mostly Cloudy
9:25 AM 77.0 °F - 71.6 °F 83% 29.97 in 10.0 mi SSW 8.1 mph - N/A   Mostly Cloudy
9:33 AM 77.0 °F - 71.6 °F 83% 29.97 in 8.0 mi SSW 8.1 mph - N/A   Mostly Cloudy
9:53 AM 77.0 °F - 72.0 °F 84% 29.96 in 10.0 mi SSW 6.9 mph - 0.01 in   Overcast
10:36 AM 80.6 °F 84.6 °F 71.6 °F 74% 29.98 in 10.0 mi SSW 11.5 mph - N/A   Mostly Cloudy
10:53 AM 80.1 °F 83.8 °F 72.0 °F 76% 29.97 in 10.0 mi SSW 9.2 mph - N/A   Mostly Cloudy
11:53 AM 82.9 °F 88.0 °F 72.0 °F 69% 29.95 in 10.0 mi South 15.0 mph 21.9 mph 0.00 in   Mostly Cloudy
12:53 PM 82.0 °F 86.7 °F 72.0 °F 71% 29.92 in 10.0 mi South 16.1 mph 24.2 mph N/A   Overcast
1:00 PM 80.6 °F 84.6 °F 71.6 °F 74% 29.93 in 10.0 mi South 16.1 mph 23.0 mph N/A   Overcast
1:33 PM 82.4 °F 87.2 °F 71.6 °F 70% 29.91 in 10.0 mi South 12.7 mph 21.9 mph N/A   Mostly Cloudy
1:53 PM 80.1 °F 83.8 °F 72.0 °F 76% 29.89 in 2.5 mi SW 10.4 mph - 0.00 in Rain , Thunderstorm Light Rain
2:00 PM 77.0 °F - 71.6 °F 83% 29.90 in 1.0 mi WSW 8.1 mph 17.3 mph 0.14 in Rain , Thunderstorm Light Rain
2:08 PM 71.6 °F - 66.2 °F 83% 29.92 in 1.0 mi NW 15.0 mph 26.5 mph 0.22 in Rain , Thunderstorm Heavy Thunderstorms and Rain
2:16 PM 71.6 °F - 66.2 °F 83% 29.92 in 3.0 mi NW 9.2 mph - 0.27 in Rain , Thunderstorm Light Thunderstorms and Rain
2:37 PM 69.8 °F - 66.2 °F 88% 29.92 in 2.5 mi NNW 12.7 mph 18.4 mph 0.28 in Rain , Thunderstorm Heavy Thunderstorms and Rain
2:53 PM 70.0 °F - 66.9 °F 90% 29.91 in 3.0 mi NW 5.8 mph - 0.36 in Rain , Thunderstorm Light Rain
2:56 PM 69.8 °F - 66.2 °F 88% 29.92 in 1.8 mi NW 5.8 mph - 0.02 in Rain , Thunderstorm Heavy Rain
3:07 PM 69.8 °F - 66.2 °F 88% 29.91 in 3.0 mi Variable 3.5 mph - 0.10 in Rain , Thunderstorm Thunderstorms and Rain
3:37 PM 71.6 °F - 66.2 °F 83% 29.91 in 10.0 mi Calm Calm - 0.15 in Rain Light Rain
3:53 PM 71.1 °F - 68.0 °F 90% 29.91 in 10.0 mi SSE 5.8 mph - 0.15 in   Mostly Cloudy
4:35 PM 71.6 °F - 68.0 °F 88% 29.89 in 10.0 mi Calm Calm - 0.01 in   Mostly Cloudy
4:53 PM 72.0 °F - 69.1 °F 91% 29.87 in 10.0 mi SSE 5.8 mph - 0.01 in   Overcast
5:19 PM 73.4 °F - 69.8 °F 88% 29.88 in 10.0 mi SW 3.5 mph - N/A   Mostly Cloudy
5:50 PM 73.4 °F - 69.8 °F 88% 29.89 in 10.0 mi Calm Calm - N/A   Mostly Cloudy
5:53 PM 73.0 °F - 69.1 °F 87% 29.88 in 10.0 mi Calm Calm - N/A   Mostly Cloudy
6:01 PM 73.4 °F - 69.8 °F 88% 29.89 in 10.0 mi Calm Calm - N/A   Overcast
6:53 PM 73.0 °F - 70.0 °F 90% 29.87 in 2.0 mi SE 3.5 mph - 0.13 in Rain Heavy Rain
7:11 PM 73.4 °F - 69.8 °F 88% 29.86 in 3.0 mi SSE 4.6 mph - 0.09 in Rain Light Rain
7:17 PM 73.4 °F - 69.8 °F 88% 29.87 in 3.0 mi South 4.6 mph - 0.10 in Rain , Thunderstorm Light Thunderstorms and Rain
7:19 PM 73.4 °F - 69.8 °F 88% 29.87 in 1.8 mi South 3.5 mph - 0.10 in Rain , Thunderstorm Heavy Thunderstorms and Rain
7:37 PM 71.6 °F - 69.8 °F 94% 29.86 in 3.0 mi South 3.5 mph - 0.42 in Rain , Thunderstorm Light Thunderstorms and Rain
7:53 PM 72.0 °F - 69.1 °F 91% 29.87 in 8.0 mi South 3.5 mph - 0.42 in Rain , Thunderstorm Light Rain
8:10 PM 71.6 °F - 69.8 °F 94% 29.88 in 6.0 mi Calm Calm - 0.02 in Rain Light Rain
8:24 PM 71.6 °F - 69.8 °F 94% 29.87 in 10.0 mi SSW 4.6 mph - 0.02 in   Overcast
8:33 PM 73.4 °F - 69.8 °F 88% 29.86 in 10.0 mi Calm Calm - 0.02 in   Overcast
8:37 PM 71.6 °F - 69.8 °F 94% 29.86 in 10.0 mi South 3.5 mph - 0.02 in   Overcast
8:53 PM 72.0 °F - 69.1 °F 91% 29.87 in 10.0 mi South 8.1 mph - 0.02 in   Overcast
9:40 PM 71.6 °F - 68.0 °F 88% 29.90 in 10.0 mi SW 5.8 mph - 0.00 in   Mostly Cloudy
9:53 PM 71.1 °F - 68.0 °F 90% 29.89 in 10.0 mi WSW 8.1 mph - 0.00 in   Overcast
10:53 PM 66.0 °F - 62.1 °F 87% 29.90 in 10.0 mi WNW 10.4 mph 24.2 mph 0.00 in   Overcast
11:16 PM 62.6 °F - 57.2 °F 82% 29.89 in 10.0 mi NW 16.1 mph 24.2 mph N/A   Overcast
11:53 PM 60.1 °F - 52.0 °F 75% 29.92 in 10.0 mi WNW 16.1 mph 21.9 mph N/A   Overcast